SL-16 DEB, 39849

Orbit data source: Space-Track

SL-16 DEB, 39849 is space debris in LEO originally from a launch on Fri, 25 Dec 1992 UTC launched from the Tyuratam Missile And Space Complex (TTMTR). Debris objects in space refer to the collection of defunct objects orbiting the Earth. Examples of debris include non-operational satellites, rocket bodies, and fragments generated from explosions, collisions, or faulty payload assembly.

Loading next visibility...
Identifier
39849, 1992-093LB
Orbit
LEO
Country
Flag of CISCIS
Related business
Manufacturer
Unknown
Mission
Spacecraft
Bus & Motor
Unknown
Mass
Unknown
Launch date (UTC)
1992-12-25 (33 years ago)
Launch vehicle
Unknown
Launch site
Tyuratam Missile And Space Complex (TTMTR)
Object type
Payload
Rocket body
Debris
Shape & HBR
Unknown shape, 0.1 m
Radar Cross Section
Small (<0.1 m²)

Expand to show TLE details & history
Last TLE update: 2 weeks ago

TLE from 2 weeks ago
0 SL-16 DEB
1 39849U 92093LB  25293.88696308  .00001050  00000-0  65048-3 0  9997
2 39849  70.8643 355.0176 0085275 218.1914 141.3143 14.05764187583470
Epoch: 2025-10-20T21:17Z
TLE epoch observation values (Epoch: 2025-10-20T21:17:13.610Z)
Latitude
0.00002°
Longitude
6.12807°
Altitude
924.768 km
Speed
7.365 km/s
True Right ascension
23h 40m 04s
True Declination
0° 00' 00"
Sunlit
Object was in full shadow at epoch
Visualization orbit readout
Latitude
Unknown
Longitude
Unknown
Altitude
Unknown
Speed
Unknown
Apparent Right ascension
Unknown
Apparent Declination
Unknown
Sunlit
N/A
Visualization observer readout
Local Sidereal Time
08:13:09
Azimuth
Unknown
Elevation
Unknown
Doppler factor
Unknown
Orbital elements
Apogee altitude
933.674 km
Perigee altitude
810.026 km
Semi-major axis
7,249.987 km
Eccentricity
0.00853
Inclination
70.8643°
RAAN
355.0176°
Arg. of periapsis
218.1914°
True anomaly
141.92003°
Mean anomaly
141.3143°
Eccentric anomaly
141.61767°
Mean motion
3.51591 °/min
Orbital period
102.39 mins
BSTAR
0.00065048
Loading maneuver chart data...
Computing Atmospheric mass density...
Loading historical data...
Loading historical data...
Loading historical data...
Loading historical data...
Loading historical data...
Loading historical data...
Loading historical data...

Documentation

Showing up to 5 results
|